Regional Weather Roundup
Issued by NWS

Home | Current Version | Previous Version | Text Only | Print | Product List | Glossary Off
Versions: 1 2 3 4 5 6 7 8 9 10 11 12 13 14 15 16 17 18 19 20 21 22 23 24 25 26 27 28 29 30 31 32 33 34 35 36 37 38 39 40 41 42 43 44 45 46 47 48 49 50

000
ASUS43 KMKX 281600
RWRWI

WISCONSIN REGIONAL WEATHER ROUNDUP
NATIONAL WEATHER SERVICE MILWAUKEE/SULLIVAN WI
1000 AM CST FRI NOV 28 2014

NOTE: "FAIR" INDICATES FEW OR NO CLOUDS BELOW 12,000 FEET WITH NO
SIGNIFICANT WEATHER AND/OR OBSTRUCTIONS TO VISIBILITY.

WIZ001-002-006>008-014>016-023>028-281700-
NORTHWEST WISCONSIN

CITY           SKY/WX    TMP DP  RH WIND       PRES   REMARKS
SUPERIOR ARPT  FLURRIES  11   8  86 CALM      30.07F
ASHLAND        CLOUDY    11   7  84 E5        30.09S FOG     WCI   3
HAYWARD        CLOUDY    11   7  84 S5        30.03R WCI   3
SIREN          LGT SNOW  13   8  79 SE6       30.02F WCI   4
CUMBERLAND     LGT SNOW  12   9  85 SE8       30.01S WCI   1
RICE LAKE      FLURRIES  13   8  82 SE10      30.04S WCI   0
CHETEK         FLURRIES  13   8  83 E6        30.03S WCI   3
LADYSMITH      CLOUDY    13   8  81 SE8       30.05S WCI   1
EAU CLAIRE     NOT AVBL
MENOMONIE      CLOUDY    15  10  79 E8        30.03F WCI   5
NEW RICHMOND   CLOUDY    14   9  80 E6        30.02R WCI   5
OSCEOLA        CLOUDY    14  10  82 E8        30.05R WCI   3
$$

WIZ003>005-009-010-017-018-281700-
NORTH CENTRAL WISCONSIN

CITY           SKY/WX    TMP DP  RH WIND       PRES   REMARKS
MANITOWISH WTR LGT SNOW   8   4  85 SE5       30.02F WCI  -1
ARBOR VITAE    FLURRIES  11   7  84 SE7       30.03F WCI   1
WOODRUFF       FLURRIES  11   7  84 SE7       30.03F WCI   1
RHINELANDER    LGT SNOW   9   5  84 SE6       30.04F FOG     WCI  -1
EAGLE RIVER    LGT SNOW   9   3  78 S6        30.04F WCI  -1
LAND O LAKES   LGT SNOW   9   5  84 S3        30.05F
PHILLIPS       FLURRIES   9   5  86 SE6       30.02F WCI  -1
TOMAHAWK       LGT SNOW   9   6  87 CALM      30.05F
MEDFORD        CLOUDY    11   6  82 SE6       30.02F WCI   1
MERRILL        CLOUDY    10   7  86 S8        30.07F WCI  -2
$$

WIZ029-030-035-036-043>047-281700-
CENTRAL WISCONSIN

CITY           SKY/WX    TMP DP  RH WIND       PRES   REMARKS
WAUSAU         CLOUDY    11   7  84 SE8       30.07F WCI  -1
MOSINEE        CLOUDY    10   9  92 SE9       30.08F WCI  -2
MARSHFIELD     CLOUDY    13   9  84 SE12      30.03F WCI  -1
STEVENS POINT  CLOUDY    10   6  86 E8        30.11F WCI  -2
WAUPACA        CLOUDY    17  11  80 SE7       30.15F WCI   7
WAUTOMA        NOT AVBL
WISC RAPIDS    CLOUDY    14   9  80 SE10      30.09F WCI   1
CAMP DOUGLAS   NOT AVBL
$$

WIZ011>013-019>022-031-037>040-048>050-281700-
NORTHEAST WISCONSIN

CITY           SKY/WX    TMP DP  RH WIND       PRES   REMARKS
ANTIGO         LGT SNOW   8   5  88 S8        30.08F WCI  -5
SHAWANO        LGT SNOW  15  10  81 SE3       30.17F
OCONTO         CLOUDY    14  10  82 CALM      30.19F
STURGEON BAY   CLOUDY    16   7  67 SW6       30.18F WCI   7
GREEN BAY      LGT SNOW  16  12  84 S8        30.18F FOG     WCI   5
MANITOWOC      NOT AVBL
APPLETON       LGT SNOW  16  10  79 SE9       30.15F WCI   4
CLINTONVILLE   CLOUDY    14  10  85 SE6       30.15F WCI   5
OSHKOSH        LGT SNOW  17  12  80 MISG      30.15F
$$

WIZ032>034-041-042-053>061-281700-
SOUTHWEST WISCONSIN

CITY           SKY/WX    TMP DP  RH WIND       PRES   REMARKS
LA CROSSE      MOSUNNY   21  10  62 SE10      30.05F WCI  10
SPARTA         CLOUDY    19  12  73 SE7       30.07S WCI  10
VIROQUA        MOSUNNY   18  11  74 SE9       30.02S WCI   7
BOSCOBEL       MOSUNNY   22  10  60 VRB5      30.08F WCI  16
PRAIRIE DU CHI MOSUNNY   21  10  62 SE6       30.07F WCI  13
PLATTEVILLE    MOSUNNY   19  12  72 SE15      30.07S WCI   5
$$

WIZ056-057-062-063-064-067-068-281700-
SOUTH CENTRAL WISCONSIN

CITY           SKY/WX    TMP DP  RH WIND       PRES   REMARKS
REEDSBURG      CLOUDY    18  11  73 SE7       30.08F WCI   9
BARABOO/DELLS  CLOUDY    18  11  74 SE12G17   30.09F WCI   5
LONE ROCK      NOT AVBL
MINERAL POINT  MOSUNNY   21  10  63 SE15      30.05F WCI   8
MADISON        CLOUDY    19  12  74 S12       30.12F WCI   7
MIDDLETON      CLOUDY    21  13  70 S10G17    30.12F WCI  10
WATERTOWN      CLOUDY    19  14  82 SE9       30.15F WCI   7
MONROE         PTSUNNY   19  14  79 SE15G22   30.09F WCI   5
JANESVILLE     SUNNY     21  14  73 SE12      30.15F WCI   9
$$

WIZ051-052-058>065-066-070>072-281700-
SOUTHEAST WISCONSIN

CITY           SKY/WX    TMP DP  RH WIND       PRES   REMARKS
MILWAUKEE      CLOUDY    20  14  77 S9        30.20S WCI   9
WAUKESHA       CLOUDY    18  12  79 S10       30.18F WCI   6
MILWAUKEE/TIMM CLOUDY    19  14  79 S7        30.21S WCI  10
RACINE         CLOUDY    22  15  75 S9        30.22F WCI  12
BURLINGTON     PTSUNNY   19  13  80 S10       30.19S WCI   7
KENOSHA        CLOUDY    22  14  71 S10       30.20F WCI  11
FOND DU LAC    CLOUDY    18  12  77 S12       30.16F WCI   5
SHEBOYGAN      FLURRIES  18  13  80 S8        30.19F WCI   8
WEST BEND      CLOUDY    18  14  86 S6        30.18S WCI   9
JUNEAU         CLOUDY    17  13  84 SE13      30.17F WCI   3
$$

LSZ147-162-281700-
LAKE SUPERIOR

STATION/POSITION TIME  TEMP    WIND        PRES    WAVE
                       AIR SEA DIR/SP/G            HT/PER
                 (UTC) (F)     (DEG/KT/KT) (MB)    (FT/S)
DEVILS ISLAND    1500   15     180/  2/  3 1020.8F
PORT WING        1500   12      70/  3/  4 1019.0F
SAXON HARBOR     1540   13      CALM  /  3 1019.3F
$$

LMZ867-665-643>646-281700-
LAKE MICHIGAN

STATION/POSITION TIME  TEMP    WIND        PRES    WAVE
                       AIR SEA DIR/SP/G            HT/PER
                 (UTC) (F)     (DEG/KT/KT) (MB)    (FT/S)
CHAMBERS ISLAND  1500   19     200/  4/  8 1022.7F
N MID LAKE BUOY  1450   23 42  250/ 10/ 12 1023.5F   1/ 3
NORTHPORT PIER   1517   18     180/  3/  7 1023.0S
SISTER BAY       1413          220/  8/ 10   N/A
KEWAUNEE LAKESHO 1500   15     240/  8/ 11 1022.3F
SHEBOYGAN LAKESH 1500   18 34  210/  9/ 10 1024.3F
PORT WASHINGTON  1540   21     240/  6/  8 1023.7F
MILWAUKEE LAKESH 1500   20     190/ 12/ 14   N/A
S MID LAKE BUOY  1450   26 42  190/ 16/ 17 1025.1F   2/ 3
KENOSHA   LAKESH 1500   20     190/ 12/ 14 1023.0F
$$

TC  - TEMPERATURE IN CELSIUS
VSB - VISIBILITY IN STATUTE MILES
WCI - WIND CHILL INDEX
HX  - HEAT INDEX



USA.gov is the U.S. government's official web portal to all federal, state and local government web resources and services.